www.pogodaiklimat.ru

Погода и климат >> Архив погоды >> Филиппины >> Научный сад


ПОГОДА в Научном саду

  • Прогноз погоды в Научном саду
  • Монитор погоды в Научном саду

АРХИВ ПОГОДЫ в Научном саду

Время (UTC), дата Ветер
(напр.,м/с)
 
Видим.   Явления Облачность Т
(С)
Тd
(С)
f
(%)
Тe
(С)
Тes
(С)
Комфортность P
(гПа)
Po
(гПа)
Тmin
(С)
Tmax
(С)
R
(мм)
R24
(мм)
S
(см)
18 11.09 штиль 0 7000 м в посл. час ливневой дождь {туман} 9/3 540 м
[Cb cap As trans]
+25.0 +23.6 92 +34 +34 очень
душно
1006.7 1001.8 1
21 11.09 СЗ 1 8000 м мгла {туман} 9/3 600 м
[Cu med, cong Ac trans Ci sp]
+25.0 +23.8 93 +34 +34 очень
душно
1005.2 1000.3
00 12.09 СВ 1 7000 м мгла {туман} 10/5 600 м
[Sc As op]
+25.6 +24.5 94 +36 +37 очень
душно
1006.5 1001.6 +24.5 25
03 12.09 СВ 1 7000 м слаб. дождь {туман} 10/6 600 м
[Sc As op Ci fib]
+26.2 +23.9 87 +36 +41 очень
душно
1006.9 1002.0 2
06 12.09 С 3 7000 м слаб. дождь {туман} 10/5 600 м
[Cu Sc As op]
+26.0 +23.7 87 +35 +37 очень
душно
1004.3 999.4 15
09 12.09 С 2 8000 м пыль {морось, туман} 10/4 600 м
[Cu Sc As trans]
+25.9 +23.5 87 +35 +35 очень
душно
1003.6 998.7 0.4
12 12.09 С 1 7000 м мгла {дождь, туман} 10/1 700 м
[Sc As trans]
+25.4 +23.4 89 +34 +34 очень
душно
1004.9 1000.0 +26.4 0.4
15 12.09 В 1 8000 м мгла {туман} 10/3 600 м
[Sc As trans]
+24.8 +23.4 92 +33 +33 очень
душно
1005.1 1000.2
18 12.09 В 1 8000 м мгла {туман} 10/3 600 м
[Sc Ac As]
+24.4 +23.2 93 +33 +33 очень
душно
1004.3 999.4
21 12.09 В 1 8000 м мгла {туман} 10/3 600 м
[Sc Ac As]
+23.8 +22.7 94 +31 +31 очень
душно
1004.4 999.5
00 13.09 ЮВ 1 8000 м мгла {туман} 8/1 600 м
[Cu med, cong Ac trans Cs]
+26.2 +23.4 85 +36 +39 очень
душно
1005.7 1000.8 +23.1 15
03 13.09 ЮЗ 1 8000 м мгла {туман} 9/3 600 м
[Cu Sc As trans Cs]
+29.0 +23.7 73 +40 +49 очень
душно
1005.2 1000.3
06 13.09 ЮЗ 1 8000 м мгла {туман} 10/4 600 м
[Cu Sc As trans]
+30.1 +25.0 74 +43 +48 опасность
перегрева
1003.6 998.7
09 13.09 Ю 1 8000 м мгла {туман} 10/4 600 м
[Cu Sc As trans]
+29.7 +24.0 72 +41 +42 опасность
перегрева
1004.4 999.5
12 13.09 Ю 1 7000 м слаб. ливневой дождь {туман} 9/6 540 м
[Cu Sc Ac As]
+27.7 +24.4 82 +39 +39 очень
душно
1006.7 1001.8 +30.2 0.0
15 13.09 ЮВ 2 7000 м мгла {туман} 8/3 600 м
[Cu med, cong Ac trans]
+27.0 +24.6 87 +38 +38 очень
душно
1007.6 1002.7 0.0
18 13.09 В 1 7000 м мгла {туман} 9/1 600 м
[Cu med, cong Ac trans]
+26.4 +24.4 89 +37 +37 очень
душно
1006.2 1001.3 0.0
21 13.09 штиль 0 7000 м мгла {туман} 9/1 600 м
[Cu med, cong Ac trans Cs]
+25.5 +24.0 91 +35 +35 очень
душно
1006.6 1001.7
00 14.09 ЮВ 1 8000 м мгла {туман} 8/3 600 м
[Cu med, cong Ci fib]
+26.8 +24.4 87 +38 +42 очень
душно
1007.6 1002.7 +24.8 0.9
03 14.09 ЮЗ 3 8000 м мгла {туман} 6/3 600 м
[Cu med, cong Ac As Ci fib]
+31.0 +24.1 67 +43 +52 опасность
перегрева
1007.1 1002.2
06 14.09 Ю 3 8000 м слаб. ливневой дождь {туман} 9/4 600 м
[Cu Sc Ac As]
+29.6 +22.8 67 +39 +42 очень
душно
1006.1 1001.2 0.9
09 14.09 СЗ 2 7000 м в посл. час ливневой дождь {туман} 10/6 540 м
[Cb cap Ac As]
+27.9 +24.9 84 +40 +40 очень
душно
1007.1 1002.2 3
12 14.09 Ю 1 8000 м в посл. час ливневой дождь {туман} 6/3 600 м
[Cu med, cong Ac As]
+27.4 +24.2 83 +38 +38 очень
душно
1004.0 +32.4 5
15 14.09 СВ 1 8000 м мгла {туман} 6/3 600 м
[Cu med, cong Ac As]
+26.3 +24.6 90 +37 +37 очень
душно
1009.1 1004.2
18 14.09 Ю 1 7000 м дождь 10/3 600 м
[Sc As op]
+25.3 +24.2 94 +35 +35 очень
душно
1007.9 1003.0 10
21 14.09 Ю 1 8000 м слаб. дождь 10/5 600 м
[Cu Sc As op]
+25.2 +24.1 94 +35 +35 очень
душно
1007.2 1002.3 1
00 15.09 Ю 1 8000 м слаб. дождь 10/3 600 м
[Cu Sc As trans]
+25.8 +24.2 91 +36 +38 очень
душно
1009.0 1004.1 +24.9 18
03 15.09 Ю 1 8000 м ливневой дождь {туман} 10/5 600 м
[Cu Sc Ac As]
+29.4 +24.1 73 +41 +44 опасность
перегрева
1007.7 1002.8 1
06 15.09 ЮЗ 2 8000 м слаб. дождь 10/5 600 м
[Cu med, cong As op]
+27.0 +25.2 90 +39 +41 очень
душно
1006.3 1001.4 13
09 15.09 ЮЗ 2 7000 м в посл. час дождь {туман} 9/5 600 м
[Cu Sc Ac As]
+27.6 +24.3 82 +39 +39 очень
душно
1005.5 1000.6 0.6
12 15.09 З 1
{10}
7000 м слаб. дождь {туман} 10/5 540 м
[Cu Sc As op]
+26.3 +24.7 91 +37 +37 очень
душно
1007.8 1002.9 +29.8 1
15 15.09 Ю 1 7000 м слаб. дождь {туман} 9/5 600 м
[Cu Sc Ac As]
+26.6 +24.7 89 +38 +38 очень
душно
1008.3 1003.4 0.0
18 15.09 Ю 1 7000 м слаб. дождь 10/5 600 м
[Cu med, cong Ac As]
+26.2 +24.3 89 +36 +36 очень
душно
1007.7 1002.8 4
21 15.09 ЮВ 1 7000 м слаб. дождь 10/5 600 м
[Cu med, cong As op]
+25.0 +24.2 95 +34 +34 очень
душно
1007.1 1002.2 22
00 16.09 З 1 6000 м дождь 10/5 600 м
[Sc As op]
+25.0 +24.3 96 +35 +35 очень
душно
1008.0 1003.1 +24.9 45
03 16.09 З 2 7000 м в посл. час дождь 10/5 600 м
[Cu Sc As trans]
+27.4 +23.9 81 +38 +42 очень
душно
1007.9 1003.0 0.0
06 16.09 ЮЗ 2 6000 м слаб. дождь 10/5 600 м
[Sc As op]
+26.1 +24.5 91 +37 +38 очень
душно
1005.7 1000.8 4
09 16.09 З 2 7000 м слаб. дождь 10/5 600 м
[Cu Sc As trans]
+26.4 +25.1 93 +38 +38 очень
душно
1005.7 1000.8 3
12 16.09 В 2 7000 м слаб. дождь 10/5 600 м
[Sc As op]
+26.0 +24.9 94 +37 +37 очень
душно
1006.7 1001.8 +28.0 5
15 16.09 С 1 7000 м в посл. час дождь 10/5 600 м
[Sc As trans]
+25.9 +24.7 93 +37 +37 очень
душно
1007.1 1002.2 0.2
18 16.09 штиль 0 7000 м в посл. час дождь 9/3 540 м
[Cb cap As trans]
+25.4 +24.3 94 +35 +35 очень
душно
1006.3 1001.4 13
21 16.09 Ю 1 7000 м в посл. час дождь 8/3 540 м
[Cb cap As trans]
+24.6 +23.8 95 +33 +33 очень
душно
1006.5 1001.6 1
00 17.09 штиль 0 8000 м слаб. дождь 10/3 600 м
[Sc As trans]
+25.6 +24.5 94 +36 +38 очень
душно
1007.8 1002.9 +24.3 30
03 17.09 З 2 8000 м мгла {туман} 10/4 540 м
[Cb cap Ac As]
+28.5 +24.8 80 +41 +44 опасность
перегрева
1007.5 1002.6 0.0
06 17.09 ЮЗ 2 8000 м слаб. ливневой дождь {туман} 10/5 600 м
[Cu Sc As op]
+28.7 +23.8 75 +40 +41 очень
душно
1005.7 1000.8 0.0
09 17.09 З 2 8000 м мгла {туман} 10/5 600 м
[Cu Sc As trans]
+28.3 +22.9 73 +38 +38 очень
душно
1005.8 1000.9 0.0
12 17.09 ЮЗ 1 7000 м сильн. дождь 10/5 600 м
[Sc As op]
+26.3 +24.3 89 +37 +37 очень
душно
1002.8 +29.0 8
15 17.09 ЮВ 1 8000 м дождь 10/4 600 м
[Sc As op]
+25.7 +23.8 89 +35 +35 очень
душно
1008.1 1003.2
18 17.09 Ю 1 7000 м слаб. дождь 10/4 600 м
[Sc As op]
+25.4 +23.8 91 +35 +35 очень
душно
1007.0 1002.1 8
21 17.09 З 1 7000 м слаб. дождь 10/4 600 м
[Sc As op]
+25.3 +24.0 93 +35 +35 очень
душно
1006.9 1002.1 4
00 18.09 ЮЗ 1 8000 м мгла {дождь} 6/5 600 м
[Cu Sc Ac trans Ci fib]
+27.6 +24.1 81 +38 +41 очень
душно
1008.9 1004.0 +24.9 21
03 18.09 ЮЗ 1 8000 м в посл. час ливневой дождь {туман} 9/4 600 м
[Cu Sc As op]
+26.7 +24.0 85 +37 +41 очень
душно
1008.8 1003.9 0.4
06 18.09 ЮЗ 3 8000 м слаб. дождь {туман} 10/8 600 м
[Cu Sc As op]
+29.1 +23.9 74 +40 +41 очень
душно
1006.8 1001.9 0.4
09 18.09 ЮЗ 1 8000 м слаб. дождь 9/5 600 м
[Cu Sc As op]
+26.1 +24.2 89 +36 +36 очень
душно
1008.1 1003.2 10
12 18.09 ЮЗ 1 7000 м слаб. дождь 10/4 600 м
[Sc As op]
+25.4 +23.8 91 +35 +35 очень
душно
1009.9 1005.0 +29.5 29

 

Местоположение метеостанции Научный сад (Филиппины): широта 14.63 долгота 121.01 высота над уровнем моря 46 м.

В архиве по умолчанию представлена погода в Научном саду за последнюю неделю. Архивные данные за месяц целиком и за предыдущие месяцы, начиная с января 2011 года, Вы можете получить, выбрав интересующий диапазон дат из раскрывающегося списка и нажав кнопку "Ввод!".


*Определитесь, кто Вы:
робот инопланетянин человек

Внимание! Время в таблицах - всемирное. Для получения местного времени необходимо прибавить поправку, которая равна 8 ч.

Смотрите также архив погоды в соседних городах и на ближайших метеорологических станциях:

Погода в Маниле (Филиппины) (6 км)
Погода в Аэропорту Ninoy Aquino (Филиппины) (12 км)
Погода в Сангли Пойнт (Филиппины) (18 км)
Погода в Танае (Филиппины) (39 км)
Погода на Амбулонге (Филиппины) (61 км)
Погода в Инфанте (Филиппины) (70 км)
Погода на Базе ВВС Clark (Филиппины) (77 км)
Погода в Куби Пойнт (Филиппины) (83 км)
Погода в Тайябасе (Филиппины) (91 км)
Погода в Кабанатуане (Филиппины) (95 км)

Пояснения к столбцам:

Ветер - указаны скорость ветра в м/с - средняя за 10 мин, порывы в срок и между сроками (в фигурных скобках) и направление, откуда дует ветер: С - северный, СВ - северо-восточный, В - восточный, ЮВ - юго-восточный, Ю - южный, ЮЗ - юго-западный, З - западный, СЗ - северо-западный.
Видимость - горизонтальная дальность видимости в метрах или километрах. При видимости от 1 до 10 км при отсутствии осадков обычно наблюдается дымка, при ухудшении видимости до 1 км и менее - туман. В сухую погоду видимость может ухудшаться дымом, пылью или мглою.
Явления - указаны атмосферные явления, наблюдавшиеся в срок или в последний час перед сроком; фигурными скобками обозначены явления, наблюдавшиеся между сроками (за 1-3 часа до срока); квадратными скобками обозначены град или гололедные отложения с указанием их диаметра в мм.
Облачность - указаны через наклонную черту общая и нижняя облачность в баллах и высота нижней границы облаков в метрах; квадратными скобками обозначены формы облаков: Ci - перистые, Cs - перисто-слоистые, Cc - перисто-кучевые, Ac - высококучевые, As - высокослоистые, Sc - слоисто-кучевые, Ns - слоисто-дождевые, Cu - кучевые, Cb - кучево-дождевые. Подробнее классификацию облаков см. в Атласе облаков (PDF).
T - Температура воздуха - температура, измеренная на высоте 2 м над землей.
Td - Температура точки росы - температура, при понижении до которой содержащийся в воздухе водяной пар достигнет насыщения.
f - Относительная влажность воздуха - влажноcть воздуха, измеренная на высоте 2 м над землей.
Te - Эффективная температура - температура, которую ощущает одетый по сезону человек в тени. Характеристика душности погоды. При расчете учитывается влияние влажности воздуха и скорости ветра на теплоощущения человека.
Tes - Эффективная температура на солнце - температура, которую ощущает человек, с поправкой на солнечный нагрев. Характеристика знойности погоды. Зависит от высоты солнца над горизонтом, облачности и скорости ветра. Ночью, в пасмурную погоду, а также при ветре 12 м/с и более поправка равна нулю.
P - Атмосферное давление - приведенное к уровню моря атмосферное давление.
Po - Атмосферное давление - измеренное на уровне метеостанции атмосферное давление.
Tmin - Минимальная температура - минимум температуры воздуха на высоте 2 м над землей.
Tmax - Максимальная температура - максимум температуры воздуха на высоте 2 м над землей.
R - Количество осадков - Количество выпавших осадков за период времени, мм. При наведении курсора мыши на число - период времени, за который выпало указанное количество осадков.
R24 - Количество осадков - Количество выпавших осадков за 24 часа, мм.
S - Снежный покров - Высота снежного покрова, см. При наведении курсора мыши на число - состояние снежного покрова и степень покрытия местности в баллах.